Location: Branche des Alpilles
(43.6087°N, 4.6976°E)
Time: 04:36:54
(UTC+00:00)

Cosmos 1867 - Pass Details

Date: 30 November 2020
Orbit: 776 x 800 km, 65.0° (Epoch: 24 January)

Event Time Altitude Azimuth Distance (km) Brightness Sun altitude
Rises 17:01:51 0° 231° (SW) 3,267 8.4 -10.0°
Reaches altitude 10° 17:04:21 10° 238° (WSW) 2,346 7.5 -10.4°
Maximum altitude 17:09:31 46° 311° (NW) 1,061 4.5 -11.3°
Drops below altitude 10° 17:14:46 10° 24° (NNE) 2,373 5.6 -12.2°
Enters shadow 17:15:36 - 27° (NNE) 2,676 5.9 -12.3°
